Volver al catálogo

ONEWEB-0194

ActivoComunicacionesPO
NORAD 48237·PAYLOAD·🇬🇧 United Kingdom

Lanzado Apr 25, 2021 desde Vostochny Cosmodrome

Loading…

Próximos Pases (próximas 24 horas)

TLE

ActualizadoSource: CelesTrak SupGP

Época: Sep 14, 2026, 17:49 UTC

1 48237C 21031AD  26257.74250417 -.00000489  00000+0 -13215-2 0  2576
2 48237  87.8899 271.8490 0002101  88.3553  12.7109 13.14505891    10

Sigue ONEWEB-0194 en tiempo real con AllMySat

Download on the App Store